Home > Weather > Colonia > Past weeks

Flag for Micronesia Past Weather in Colonia, Yap, Micronesia — Yesterday and Last 2 Weeks

Now
77 °F

Mostly cloudy.


Feels Like: 77 °F
Forecast: 76 / 88 °F
Wind: 6 mph from North

Location: Yap Island

Current Time: Jul 28, 2016 at 1:30:00 AM

Latest Report: Jul 28, 2016 at 12:55 AM


Visibility: 12 mi

Pressure: 29.81 "Hg

Humidity: 92%

Dew Point: 74 °F

Location of ColoniaLocation

Past Weather in Colonia — Graph

°F

Colonia Temperature Yesterday

Maximum temperature yesterday: 90 °F (at 10:50 AM)
Minimum temperature yesterday: 75 °F (at 6:50 AM)
Average temperature yesterday: 79 °F

High & Low Weather Summary for the Past Weeks

 TemperatureHumidityPressure
High134 °F (Jul 20, 6:53 AM)94% (Jul 27, 4:53 AM)29.89 "Hg (Jul 27, 4:53 AM)
Low75 °F (Jul 27, 6:50 AM)17% (Jul 20, 6:53 AM)29.72 "Hg (Jul 21, 4:50 PM)
Average83 °F80%29.80 "Hg
* Reported Jul 12 11:51 PM — Jul 27 11:53 PM, Colonia, Weather by CustomWeather, © 2016

Note: Actual official high and low records may vary slightly from our data, if they occured in-between our weather recording intervals... More about our weather records

Advertising

Colonia Weather History for the Previous 24 Hours

Scroll right to see more
 ConditionsComfort  
Time TempWeatherWind HumidityBarometerVisibility
11:53 PM
Wed, Jul 27
77 °FSprinkles. Mostly cloudy.7 mph93%29.82 "Hg11 mi
10:54 PM76 °FSprinkles. Mostly cloudy.6 mph93%29.83 "Hg10 mi
9:55 PM76 °FRain showers. Mostly cloudy.8 mph93%29.83 "Hg7 mi
8:54 PM76 °FRain showers. Mostly cloudy.9 mph93%29.83 "Hg6 mi
7:55 PM78 °FSprinkles. More clouds than sun.9 mph91%29.80 "Hg10 mi
6:50 PM80 °FCloudy.No wind89%29.78 "Hg12 mi
5:54 PM80 °FCloudy.3 mph90%29.76 "Hg12 mi
4:52 PM79 °FCloudy.5 mph92%29.75 "Hg12 mi
3:52 PM78 °FSprinkles. Mostly cloudy.5 mph92%29.75 "Hg9 mi
2:50 PM77 °FSprinkles. Mostly cloudy.5 mph89%29.78 "Hg9 mi
1:51 PM77 °FSprinkles. Mostly cloudy.9 mph89%29.79 "Hg6 mi
12:50 PM77 °FSprinkles. Mostly cloudy.8 mph88%29.80 "Hg5 mi
11:50 AM89 °FMostly cloudy.6 mph70%29.80 "Hg12 mi
10:50 AM90 °FCloudy.6 mph74%29.80 "Hg12 mi
9:53 AM87 °FCloudy.5 mph86%29.82 "Hg12 mi
8:50 AM79 °FMostly cloudy.No wind94%29.80 "Hg11 mi
7:52 AM76 °FSprinkles. Mostly cloudy.No wind94%29.80 "Hg11 mi
6:50 AM75 °FMostly cloudy.No wind92%29.78 "Hg12 mi
5:51 AM77 °FPartly cloudy.3 mph94%29.77 "Hg12 mi
4:53 AM77 °FPartly cloudy.3 mph94%29.75 "Hg12 mi
3:52 AM78 °FPartly cloudy.3 mph93%29.75 "Hg12 mi
2:50 AM78 °FPartly cloudy.No wind91%29.76 "Hg12 mi
1:52 AM78 °FPartly cloudy.No wind91%29.78 "Hg12 mi
Weather by CustomWeather, © 2016

See weather overviewHow to use our weather pages